#timestamp,LO_Frequency,Hit,StdDev 
1512529215.9,286047007.8,N
1512529235.7,286047010.4,N
1512529255.5,286047007.3,N
1512529275.4,286047006.7,N
1512529295.2,286047007.3,N
1512529315.0,286047008.7,N
1512529315.9,286047008.7,N
1512529335.8,286047006.3,N
1512529355.6,286047009.1,N
1512529375.4,286047010.4,N
1512529395.3,286047016.4,Y
1512529415.1,286047012.2,P
1512529416.0,286047012.2,P
1512529435.8,286047009.7,N
1512529455.7,286047008.5,Y
1512529475.5,286046999.0,P
1512529495.3,286046996.8,N
1512529515.2,286046997.6,N
1512529535.9,286046999.1,N
1512529555.7,286046998.8,N
1512529575.5,286047003.7,N
1512529595.4,286047003.7,N
1512529615.2,286047004.6,N
1512529635.0,286047005.7,N
1512529635.9,286047005.7,N
1512529655.8,286047005.2,N
1512529675.6,286047012.3,Y
1512529695.4,286047006.5,P
1512529715.3,286047004.5,N
1512529735.1,286046999.8,N
1512529755.8,286046998.8,N
1512529775.7,286046997.5,N
1512529795.5,286047000.1,N
1512529815.3,286047003.6,N
1512529835.2,286047003.4,N
1512529855.9,286047002.9,N
1512529875.7,286047004.8,N
1512529895.6,286047004.1,N
1512529915.4,286047007.2,N
1512529935.2,286047001.7,N
1512529955.0,286047003.8,N
1512529955.9,286047003.8,N
1512529975.8,286047008.0,Y
1512529995.6,286047008.0,P
1512530015.4,286047010.6,P
1512530035.3,286047010.4,P
1512530055.1,286047007.1,N
1512530075.8,286047007.6,N
1512530095.7,286047010.4,Y
1512530115.5,286047002.7,P
1512530135.3,286047000.7,N
1512530155.2,286046997.9,N
1512530175.0,286046993.9,N
1512530175.9,286046993.9,N
1512530195.7,286046994.0,N
1512530215.6,286046992.1,N
1512530235.4,286046993.7,N
1512530255.2,286047000.2,N
1512530275.1,286046997.8,N
1512530276.0,286046997.8,N
1512530295.8,286046994.4,N
1512530315.6,286046994.0,N
1512530335.5,286046992.1,N
1512530355.3,286046992.1,N
1512530375.1,286046987.4,N
1512530395.9,286046985.6,Y
1512530415.7,286046987.2,P
1512530435.5,286046989.1,N
1512530455.3,286046990.2,N
1512530475.2,286046988.8,Y
1512530495.0,286046998.9,P
1512530495.9,286046998.9,N
1512530515.8,286047000.8,N
1512530535.6,286047000.5,N
1512530555.4,286046998.1,N
1512530575.2,286047000.7,N
1512530595.1,286046998.2,N
1512530596.0,286046998.2,N
1512530615.8,286047001.0,N
1512530635.6,286047001.9,N
1512530655.5,286047001.3,N
1512530675.3,286047004.3,N
1512530695.1,286047000.6,N
1512530715.9,286047000.5,N
1512530735.7,286046998.5,N
1512530755.5,286047004.1,N
1512530775.4,286047003.1,N
1512530795.2,286047001.7,N
1512530815.0,286046999.8,N
1512530815.9,286046999.8,N
1512530835.8,286047002.2,N
1512530855.6,286047002.0,N
1512530875.4,286047005.3,N
1512530895.2,286047001.5,N
1512530915.1,286047000.8,N
1512530916.0,286047000.8,N
1512530935.8,286046996.8,N
1512530955.6,286046997.5,N
1512530975.5,286046999.6,N
1512530995.3,286047000.6,N
1512531015.1,286047004.1,N
1512531035.9,286047002.5,N
1512531055.7,286047001.2,N
1512531075.5,286046998.6,N
1512531095.4,286046999.6,N
1512531115.2,286046998.1,N
1512531135.0,286046997.6,N
1512531135.9,286046997.6,N
1512531155.8,286046998.7,N
1512531175.6,286047001.5,N
1512531195.4,286047005.5,N
1512531215.2,286047004.8,N
1512531235.1,286047006.0,N
1512531236.0,286047006.0,N
1512531255.8,286047000.0,N
1512531275.6,286047000.8,N
1512531295.5,286047004.1,N
1512531315.3,286047001.7,N
1512531335.1,286047004.1,N
1512531355.9,286047006.4,N
1512531375.7,286047010.2,Y
1512531395.5,286047008.1,P
1512531415.4,286047009.0,N
1512531435.2,286047003.3,N
1512531455.0,286047005.2,N
1512531455.9,286047005.2,N
1512531475.8,286047005.8,N
1512531495.6,286047002.3,N
1512531515.4,286047004.2,N
1512531535.3,286047004.6,N
1512531555.1,286047002.1,N
1512531556.0,286047002.1,N
1512531575.8,286047001.2,N
1512531595.7,286047001.2,N
1512531615.5,286046999.2,N
1512531635.3,286046995.7,N
1512531655.2,286046999.6,N
1512531675.9,286046994.2,N
1512531695.7,286046989.1,N
1512531715.6,286046992.2,N
1512531735.4,286046994.0,N
1512531755.2,286046991.0,N
1512531775.0,286046989.7,N
1512531775.9,286046989.7,N
1512531795.8,286046990.7,N
1512531815.6,286046996.7,N
1512531835.4,286046999.9,N
1512531855.3,286047004.1,N
1512531875.1,286047001.8,N
1512531895.8,286046999.0,N
1512531915.7,286046999.6,N
1512531935.5,286046991.8,N
1512531955.3,286046992.7,N
1512531975.2,286046992.3,N
1512531995.9,286046996.3,N
1512532015.7,286046997.9,N
1512532035.5,286047001.5,N
1512532055.4,286047000.2,N
1512532075.2,286046997.5,N
1512532095.0,286047000.0,N
1512532095.9,286047000.0,N
1512532115.8,286047002.3,N
1512532135.6,286046999.9,N
1512532155.4,286046998.6,N
1512532175.3,286047000.0,N
1512532195.1,286046997.0,N
1512532215.8,286047000.0,N
1512532235.7,286047003.3,N
1512532255.5,286047005.6,N
1512532275.3,286047008.2,N
1512532295.2,286047007.5,N
1512532315.9,286047006.6,N
1512532335.7,286047003.6,N
1512532355.6,286047002.9,N
1512532375.4,286047002.5,N
1512532395.2,286047000.6,N
1512532415.0,286046999.2,N
1512532415.9,286046999.2,N
1512532435.8,286046996.5,N
1512532455.6,286047001.7,N
1512532475.4,286046998.6,N
1512532495.3,286047000.5,N
1512532515.1,286046998.3,N
1512532535.8,286046999.1,N
1512532555.7,286046996.7,N
1512532575.5,286046997.4,N
1512532595.3,286046999.2,N
1512532615.2,286046996.2,N
1512532635.9,286046992.7,N
1512532655.7,286046992.8,N
1512532675.6,286046994.3,N
1512532695.4,286046995.8,N
1512532715.2,286046996.0,N
1512532735.1,286046990.2,N
1512532736.0,286046990.2,N
1512532755.8,286046989.8,N
1512532775.6,286046987.2,N
1512532795.4,286046987.2,N
